Date String (YYYY-MM-DD hh:mm:ss) UTC,Instrument flags,absolute air pressure of the measurement (hPa),sample flow rate (lpm),inlet stack bypass flow (lpm),air temperature of the measurement (°C),ambient temperature measured by the external sensor (°C),aerosol sample conditioner tube jacket temperature (°C),OPC LED temperature (°C),internal box temperature (°C),relative humidity of the measurement (%),span deviation,mass concentration of particles derived from Lorenz-Mie calculation of OPC scattering (μg/m³),mass concentration of particles derived from Lorenz-Mie calculation of OPC scattering (μg/m³),mass concentration of particles derived from Lorenz-Mie calculation of OPC scattering (μg/m³)
DateTimeUTC,F1_M11,P_M11,Q1_M11,Q2_M11,T1_M11,T2_M11,T3_M11,T4_M11,T5_M11,U1_M11,ZSPAN_M11,X0_M11,X2_M11,X1_M11
2023-06-09 00:00:00,SystemResetWarning,0829.5,5.00,000.00,029.3,026.3,000.0,037.9,030.7,26.3,0000.0,0011.20,0003.20,0002.36
2023-06-09 00:01:00,SystemResetWarning,0829.5,4.99,000.00,029.3,026.7,000.0,037.9,030.8,25.9,0000.0,0011.63,0003.20,0002.36
2023-06-09 00:02:00,SystemResetWarning,0829.5,5.00,000.00,029.3,027.1,000.0,037.9,030.9,25.7,0000.0,0011.99,0003.20,0002.34
2023-06-09 00:03:00,SystemResetWarning,0829.5,5.01,000.00,029.4,027.4,000.0,037.9,030.9,26.7,0000.0,0011.92,0003.20,0002.33
2023-06-09 00:04:00,SystemResetWarning,0829.5,5.00,000.00,029.4,027.6,000.0,037.9,031.0,27.9,0000.0,0011.26,0003.21,0002.34
2023-06-09 00:05:00,SystemResetWarning,0829.5,5.01,000.00,029.4,027.8,000.0,037.9,031.1,26.0,0000.0,0011.64,0003.21,0002.35
2023-06-09 00:06:00,SystemResetWarning,0829.6,5.00,000.00,029.5,028.0,000.0,038.0,031.1,25.4,0000.0,0011.53,0003.18,0002.34
2023-06-09 00:07:00,SystemResetWarning,0829.5,4.99,000.00,029.5,027.7,000.0,038.0,031.2,25.9,0000.0,0012.64,0003.18,0002.34
2023-06-09 00:08:00,SystemResetWarning,0829.5,4.99,000.00,029.5,025.9,000.0,037.9,031.1,26.3,0000.0,0013.39,0003.19,0002.33
2023-06-09 00:09:00,SystemResetWarning,0829.4,5.00,000.00,029.5,025.3,000.0,037.9,031.1,26.3,0000.0,0013.21,0003.21,0002.33
2023-06-09 00:10:00,SystemResetWarning,0829.4,5.02,000.00,029.4,025.5,000.0,037.9,030.9,26.3,0000.0,0013.00,0003.20,0002.34
2023-06-09 00:11:00,SystemResetWarning,0829.4,5.00,000.00,029.4,025.9,000.0,037.9,030.7,26.8,0000.0,0011.74,0003.19,0002.35
2023-06-09 00:12:00,SystemResetWarning,0829.4,5.00,000.00,029.3,026.3,000.0,037.9,030.7,26.2,0000.0,0011.17,0003.20,0002.36
2023-06-09 00:13:00,SystemResetWarning,0829.5,5.00,000.00,029.3,026.7,000.0,037.9,030.8,26.7,0000.0,0011.12,0003.16,0002.36
2023-06-09 00:14:00,SystemResetWarning,0829.5,5.00,000.00,029.4,027.0,000.0,037.9,030.8,27.3,0000.0,0010.43,0003.18,0002.37
2023-06-09 00:15:00,SystemResetWarning,0829.5,5.00,000.00,029.4,027.3,000.0,037.9,030.9,27.3,0000.0,0010.48,0003.19,0002.36
2023-06-09 00:16:00,SystemResetWarning,0829.6,5.00,000.00,029.4,027.6,000.0,037.9,031.0,27.3,0000.0,0009.86,0003.20,0002.36
2023-06-09 00:17:00,SystemResetWarning,0829.5,5.00,000.00,029.4,027.8,000.0,037.9,031.0,27.3,0000.0,0009.99,0003.18,0002.35
2023-06-09 00:18:00,SystemResetWarning,0829.6,5.00,000.00,029.5,028.0,000.0,038.0,031.1,27.3,0000.0,0009.47,0003.17,0002.35
2023-06-09 00:19:00,SystemResetWarning,0829.6,4.99,000.00,029.5,028.1,000.0,038.0,031.1,26.1,0000.0,0008.37,0003.16,0002.35
2023-06-09 00:20:00,SystemResetWarning,0829.7,4.99,000.00,029.5,027.4,000.0,038.0,031.2,26.0,0000.0,0008.46,0003.14,0002.34
2023-06-09 00:21:00,SystemResetWarning,0829.6,5.00,000.00,029.5,025.7,000.0,037.9,031.1,25.6,0000.0,0008.53,0003.13,0002.33
2023-06-09 00:22:00,SystemResetWarning,0829.6,5.01,000.00,029.5,025.3,000.0,037.9,031.0,25.0,0000.0,0008.93,0003.15,0002.32
2023-06-09 00:23:00,SystemResetWarning,0829.6,5.01,000.00,029.4,025.6,000.0,037.9,030.8,24.2,0000.0,0009.91,0003.17,0002.32
2023-06-09 00:24:00,SystemResetWarning,0829.6,5.00,000.00,029.3,025.9,000.0,037.9,030.7,24.6,0000.0,0009.66,0003.15,0002.33
2023-06-09 00:25:00,SystemResetWarning,0829.6,5.00,000.00,029.3,026.3,000.0,037.9,030.7,25.3,0000.0,0009.20,0003.12,0002.31
2023-06-09 00:26:00,SystemResetWarning,0829.6,5.00,000.00,029.3,026.7,000.0,037.9,030.8,25.3,0000.0,0008.95,0003.06,0002.32
2023-06-09 00:27:00,SystemResetWarning,0829.6,5.00,000.00,029.4,027.1,000.0,037.9,030.9,25.1,0000.0,0008.93,0003.05,0002.31
2023-06-09 00:28:00,SystemResetWarning,0829.6,5.00,000.00,029.4,027.3,000.0,037.9,030.9,26.1,0000.0,0008.31,0003.12,0002.33
2023-06-09 00:29:00,SystemResetWarning,0829.6,4.99,000.00,029.4,027.6,000.0,037.9,031.0,26.5,0000.0,0008.19,0003.15,0002.34
2023-06-09 00:30:00,SystemResetWarning,0829.6,4.99,000.00,029.4,027.8,000.0,037.9,031.1,26.0,0000.0,0008.27,0003.18,0002.35
2023-06-09 00:31:00,SystemResetWarning,0829.6,5.00,000.00,029.5,028.0,000.0,038.0,031.1,25.2,0000.0,0008.06,0003.17,0002.37
2023-06-09 00:32:00,SystemResetWarning,0829.6,4.99,000.00,029.5,027.7,000.0,038.0,031.2,24.9,0000.0,0007.99,0003.19,0002.39
2023-06-09 00:33:00,SystemResetWarning,0829.6,5.00,000.00,029.5,026.0,000.0,037.9,031.1,24.2,0000.0,0007.61,0003.16,0002.40
2023-06-09 00:34:00,SystemResetWarning,0829.6,5.01,000.00,029.5,025.3,000.0,037.9,031.1,23.9,0000.0,0006.09,0003.13,0002.41
2023-06-09 00:35:00,SystemResetWarning,0829.5,5.01,000.00,029.4,025.4,000.0,037.9,030.8,23.9,0000.0,0005.89,0003.14,0002.42
2023-06-09 00:36:00,SystemResetWarning,0829.5,5.00,000.00,029.3,025.8,000.0,037.9,030.7,24.5,0000.0,0005.80,0003.15,0002.45
2023-06-09 00:37:00,SystemResetWarning,0829.6,5.01,000.00,029.3,026.2,000.0,037.9,030.7,24.6,0000.0,0005.78,0003.15,0002.45
2023-06-09 00:38:00,SystemResetWarning,0829.5,4.99,000.00,029.3,026.6,000.0,037.9,030.8,25.3,0000.0,0005.88,0003.13,0002.45
2023-06-09 00:39:00,SystemResetWarning,0829.5,5.01,000.00,029.3,026.9,000.0,037.9,030.8,25.4,0000.0,0006.21,0003.11,0002.46
2023-06-09 00:40:00,SystemResetWarning,0829.5,5.00,000.00,029.3,027.2,000.0,037.9,030.9,25.3,0000.0,0005.62,0003.05,0002.45
2023-06-09 00:41:00,SystemResetWarning,0829.5,4.99,000.00,029.4,027.5,000.0,037.9,030.9,25.1,0000.0,0005.72,0003.01,0002.45
2023-06-09 00:42:00,SystemResetWarning,0829.6,5.00,000.00,029.4,027.7,000.0,037.9,031.0,25.4,0000.0,0007.40,0003.07,0002.46
2023-06-09 00:43:00,SystemResetWarning,0829.6,5.01,000.00,029.4,027.9,000.0,037.9,031.0,25.8,0000.0,0007.79,0003.04,0002.45
2023-06-09 00:44:00,SystemResetWarning,0829.6,5.00,000.00,029.5,028.0,000.0,038.0,031.1,25.7,0000.0,0008.03,0003.09,0002.45
2023-06-09 00:45:00,SystemResetWarning,0829.6,4.99,000.00,029.5,028.1,000.0,038.0,031.1,24.8,0000.0,0008.24,0003.12,0002.46
2023-06-09 00:46:00,SystemResetWarning,0829.6,4.99,000.00,029.5,026.5,000.0,037.9,031.2,24.3,0000.0,0008.25,0003.13,0002.47
2023-06-09 00:47:00,SystemResetWarning,0829.5,5.00,000.00,029.5,025.3,000.0,037.9,031.1,24.6,0000.0,0008.49,0003.17,0002.47
2023-06-09 00:48:00,SystemResetWarning,0829.5,5.01,000.00,029.5,025.3,000.0,037.9,030.9,25.2,0000.0,0008.89,0003.22,0002.49
2023-06-09 00:49:00,SystemResetWarning,0829.5,5.00,000.00,029.4,025.7,000.0,037.9,030.7,26.0,0000.0,0009.22,0003.24,0002.51
2023-06-09 00:50:00,SystemResetWarning,0829.5,4.99,000.00,029.4,026.0,000.0,037.9,030.7,26.6,0000.0,0009.32,0003.26,0002.51
2023-06-09 00:51:00,SystemResetWarning,0829.5,5.00,000.00,029.3,026.4,000.0,037.9,030.8,26.9,0000.0,0009.95,0003.28,0002.53
2023-06-09 00:52:00,SystemResetWarning,0829.5,5.00,000.00,029.3,026.8,000.0,037.9,030.8,27.2,0000.0,0010.46,0003.29,0002.53
2023-06-09 00:53:00,SystemResetWarning,0829.5,5.01,000.00,029.4,027.1,000.0,037.9,030.8,26.6,0000.0,0009.82,0003.28,0002.53
2023-06-09 00:54:00,SystemResetWarning,0829.5,4.99,000.00,029.4,027.4,000.0,037.9,030.9,26.2,0000.0,0009.48,0003.29,0002.52
2023-06-09 00:55:00,SystemResetWarning,0829.6,5.00,000.00,029.4,027.6,000.0,037.9,031.0,26.4,0000.0,0010.04,0003.31,0002.52
2023-06-09 00:56:00,SystemResetWarning,0829.6,5.00,000.00,029.4,027.8,000.0,037.9,031.1,27.5,0000.0,0010.23,0003.31,0002.49
2023-06-09 00:57:00,SystemResetWarning,0829.6,5.00,000.00,029.5,028.0,000.0,038.0,031.1,27.3,0000.0,0010.23,0003.30,0002.48
2023-06-09 00:58:00,SystemResetWarning,0829.6,5.00,000.00,029.5,028.1,000.0,038.0,031.1,26.8,0000.0,0010.16,0003.29,0002.47
2023-06-09 00:59:00,SystemResetWarning,0829.6,4.99,000.00,029.5,027.3,000.0,038.0,031.2,26.0,0000.0,0009.92,0003.27,0002.45
